sat.trackr.live / text

‹ back to catalog

STARLINK-3580

NORAD 51781 · 2022-017P

PAYLOAD ACTIVE UNKNOWN

§ Identity

Operator
Country
US
Launch date
2022-02-25
Launch site
AFWTR
Launch vehicle
Mass (kg)
RCS (m²)

Purposes: comms

External: N2YO · Heavens-Above · Gunter

§ Orbital elements

Epoch: 2026-05-24T21:20:03.507072Z

Period
95.44 min
Inclination
53.2128°
Eccentricity
0.0001284
Mean motion
15.08826792 rev/d
Perigee alt
538.9 km
Apogee alt
540.7 km
Semi-major
6,917.9 km
B*
7.9007e-5
RAAN
357.0103°
Arg perigee
91.9791°
Mean anomaly
268.1348°
Rev number
23,392

§ Raw data

STARLINK-35801 51781U 22017P   26144.88892948  .00000969  00000+0  79007-4 0  99972 51781  53.2128 357.0103 0001284  91.9791 268.1348 15.08826792233924

JSON: /api/v1/satellites/51781 · /tle

For live sub-satellite position, see the globe view (requires WebGL).

§ Visibility from observer

Set your observer location to see the next 7 days of passes ≥ 10°. The values pass through the URL so the page stays shareable.

No JS? Fill the form by hand. The geolocation button needs JavaScript.